• In Uzbekistan
  • List of Countries
  • For 7 days
  • Water Temperature
  • Satellite Maps
  • Weather Map
  • Weather Widgets
  • user-avatar
    Login

    Hourly Weather Buenos Aires

    Today, 16 January, Monday

    Time Temperature Precipitation Wind Pressure Humidity
    00:00 +21°C° 0.5 mm 9 mps 753 mmHg 85%
    01:00 +21°C° 0.5 mm 9 mps 753 mmHg 85%
    02:00 +21°C° 0.5 mm 8 mps 753 mmHg 84%
    03:00 +21°C° 0 mm 8 mps 753 mmHg 84%
    04:00 +22°C° 0 mm 7 mps 753 mmHg 83%
    05:00 +22°C° 0 mm 7 mps 753 mmHg 83%
    06:00 +23°C° 0 mm 8 mps 753 mmHg 80%
    07:00 +24°C° 0 mm 9 mps 753 mmHg 78%
    08:00 +26°C° 0 mm 9 mps 753 mmHg 75%
    09:00 +27°C° 0.2 mm 9 mps 753 mmHg 75%
    10:00 +27°C° 0.2 mm 8 mps 753 mmHg 75%
    11:00 +27°C° 0.2 mm 7 mps 753 mmHg 75%
    12:00 +28°C° 0.1 mm 7 mps 753 mmHg 70%
    13:00 +29°C° 0.1 mm 7 mps 752 mmHg 65%
    14:00 +30°C° 0.1 mm 6 mps 752 mmHg 60%
    15:00 +30°C° 0.1 mm 6 mps 752 mmHg 60%
    16:00 +30°C° 0.1 mm 6 mps 752 mmHg 59%
    17:00 +30°C° 0.1 mm 6 mps 752 mmHg 59%
    18:00 +28°C° 0 mm 6 mps 752 mmHg 65%
    19:00 +26°C° 0 mm 5 mps 752 mmHg 70%
    20:00 +25°C° 0 mm 5 mps 752 mmHg 76%
    21:00 +23°C° 0 mm 5 mps 753 mmHg 79%
    22:00 +22°C° 0 mm 6 mps 753 mmHg 82%
    23:00 +22°C° 0 mm 6 mps 753 mmHg 85%

    Tomorrow, 17 January, Tuesday

    Time Temperature Precipitation Wind Pressure Humidity
    00:00 +21°C° 0 mm 6 mps 753 mmHg 88%
    01:00 +21°C° 0 mm 5 mps 753 mmHg 90%
    02:00 +20°C° 0 mm 5 mps 752 mmHg 93%
    03:00 +20°C° 0 mm 5 mps 752 mmHg 94%
    04:00 +20°C° 0 mm 5 mps 752 mmHg 95%
    05:00 +19°C° 0 mm 5 mps 752 mmHg 96%
    06:00 +21°C° 0 mm 5 mps 753 mmHg 88%
    07:00 +23°C° 0 mm 5 mps 753 mmHg 80%
    08:00 +26°C° 0 mm 5 mps 753 mmHg 72%
    09:00 +28°C° 0 mm 5 mps 753 mmHg 61%
    10:00 +32°C° 0 mm 5 mps 753 mmHg 51%
    11:00 +35°C° 0 mm 5 mps 753 mmHg 41%
    12:00 +36°C° 0 mm 5 mps 752 mmHg 35%
    13:00 +39°C° 0 mm 5 mps 752 mmHg 29%
    14:00 +40°C° 0 mm 5 mps 751 mmHg 23%
    15:00 +40°C° 0 mm 6 mps 751 mmHg 24%
    16:00 +40°C° 0 mm 6 mps 750 mmHg 24%
    17:00 +39°C° 0 mm 6 mps 750 mmHg 24%
    18:00 +35°C° 0 mm 6 mps 750 mmHg 29%
    19:00 +32°C° 0 mm 6 mps 751 mmHg 34%
    20:00 +28°C° 0 mm 5 mps 752 mmHg 38%
    21:00 +27°C° 0 mm 6 mps 753 mmHg 43%
    22:00 +26°C° 0 mm 7 mps 754 mmHg 48%
    23:00 +23°C° 0 mm 8 mps 755 mmHg 53%

    Day after tomorrow, 18 January, Wednesday

    Time Temperature Precipitation Wind Pressure Humidity
    00:00 +22°C° 0 mm 7 mps 755 mmHg 55%
    01:00 +21°C° 0 mm 6 mps 755 mmHg 57%
    02:00 +19°C° 0 mm 5 mps 756 mmHg 60%
    03:00 +19°C° 0 mm 5 mps 756 mmHg 63%
    04:00 +17°C° 0 mm 5 mps 756 mmHg 66%
    05:00 +17°C° 0 mm 4 mps 757 mmHg 69%
    06:00 +20°C° 0 mm 4 mps 757 mmHg 63%
    07:00 +22°C° 0 mm 5 mps 758 mmHg 58%
    08:00 +25°C° 0 mm 5 mps 758 mmHg 52%
    09:00 +27°C° 0 mm 5 mps 758 mmHg 45%
    10:00 +29°C° 0 mm 5 mps 758 mmHg 39%
    11:00 +32°C° 0 mm 5 mps 758 mmHg 32%
    12:00 +33°C° 0 mm 5 mps 758 mmHg 32%
    13:00 +33°C° 0 mm 5 mps 758 mmHg 31%
    14:00 +34°C° 0 mm 5 mps 758 mmHg 31%
    15:00 +33°C° 0 mm 6 mps 757 mmHg 33%
    16:00 +32°C° 0 mm 6 mps 757 mmHg 36%
    17:00 +30°C° 0 mm 7 mps 757 mmHg 39%
    18:00 +28°C° 0 mm 7 mps 757 mmHg 45%
    19:00 +26°C° 0 mm 7 mps 758 mmHg 52%
    20:00 +23°C° 0 mm 7 mps 758 mmHg 58%
    21:00 +23°C° 0 mm 7 mps 758 mmHg 56%
    22:00 +23°C° 0 mm 8 mps 759 mmHg 54%
    23:00 +24°C° 0 mm 8 mps 759 mmHg 52%

    19 January, Thursday

    Time Temperature Precipitation Wind Pressure Humidity
    00:00 +23°C° 0 mm 8 mps 759 mmHg 53%
    01:00 +23°C° 0 mm 8 mps 759 mmHg 53%
    02:00 +23°C° 0 mm 9 mps 759 mmHg 54%
    03:00 +22°C° 0 mm 8 mps 759 mmHg 55%
    04:00 +22°C° 0 mm 8 mps 759 mmHg 56%
    05:00 +22°C° 0 mm 8 mps 760 mmHg 57%
    06:00 +23°C° 0 mm 8 mps 760 mmHg 55%
    07:00 +24°C° 0 mm 8 mps 760 mmHg 53%
    08:00 +26°C° 0 mm 8 mps 761 mmHg 51%
    09:00 +28°C° 0.1 mm 8 mps 761 mmHg 47%
    10:00 +29°C° 0.1 mm 7 mps 761 mmHg 43%
    11:00 +32°C° 0.1 mm 7 mps 761 mmHg 39%
    12:00 +33°C° 0 mm 6 mps 760 mmHg 35%
    13:00 +34°C° 0 mm 6 mps 760 mmHg 32%
    14:00 +35°C° 0 mm 6 mps 759 mmHg 29%
    15:00 +35°C° 0 mm 6 mps 759 mmHg 29%
    16:00 +35°C° 0 mm 6 mps 758 mmHg 30%
    17:00 +35°C° 0 mm 6 mps 758 mmHg 30%
    18:00 +34°C° 0 mm 6 mps 758 mmHg 34%
    19:00 +32°C° 0 mm 6 mps 758 mmHg 38%
    20:00 +29°C° 0 mm 6 mps 759 mmHg 41%
    21:00 +28°C° 0.1 mm 6 mps 759 mmHg 43%
    22:00 +27°C° 0.1 mm 6 mps 759 mmHg 45%
    23:00 +27°C° 0.1 mm 6 mps 759 mmHg 47%

    20 January, Friday

    Time Temperature Precipitation Wind Pressure Humidity
    00:00 +26°C° 0.6 mm 6 mps 759 mmHg 52%
    01:00 +24°C° 0.6 mm 6 mps 759 mmHg 58%
    02:00 +23°C° 0.6 mm 6 mps 759 mmHg 63%
    03:00 +22°C° 0.7 mm 6 mps 760 mmHg 66%
    04:00 +22°C° 0.7 mm 6 mps 760 mmHg 69%
    05:00 +21°C° 0.7 mm 6 mps 760 mmHg 72%
    06:00 +23°C° 0.3 mm 6 mps 761 mmHg 66%
    07:00 +24°C° 0.3 mm 6 mps 761 mmHg 61%
    08:00 +27°C° 0.3 mm 6 mps 762 mmHg 56%
    09:00 +29°C° 0.1 mm 6 mps 762 mmHg 49%
    10:00 +32°C° 0.1 mm 6 mps 761 mmHg 41%
    11:00 +34°C° 0.1 mm 5 mps 761 mmHg 34%
    12:00 +36°C° 0 mm 5 mps 761 mmHg 31%
    13:00 +37°C° 0 mm 5 mps 760 mmHg 29%
    14:00 +38°C° 0 mm 4 mps 759 mmHg 26%
    15:00 +38°C° 0 mm 4 mps 759 mmHg 27%
    16:00 +38°C° 0 mm 4 mps 759 mmHg 28%
    17:00 +38°C° 0 mm 4 mps 758 mmHg 29%
    18:00 +35°C° 0 mm 4 mps 758 mmHg 35%
    19:00 +33°C° 0 mm 4 mps 759 mmHg 41%
    20:00 +29°C° 0 mm 5 mps 759 mmHg 47%
    21:00 +29°C° 0 mm 5 mps 759 mmHg 48%
    22:00 +28°C° 0 mm 5 mps 759 mmHg 49%
    23:00 +28°C° 0 mm 6 mps 759 mmHg 49%

    21 January, Saturday

    Time Temperature Precipitation Wind Pressure Humidity
    00:00 +28°C° 0 mm 6 mps 759 mmHg 50%
    01:00 +27°C° 0 mm 6 mps 759 mmHg 50%
    02:00 +27°C° 0 mm 6 mps 759 mmHg 51%
    03:00 +26°C° 0 mm 6 mps 759 mmHg 52%
    04:00 +26°C° 0 mm 6 mps 759 mmHg 53%
    05:00 +26°C° 0 mm 6 mps 760 mmHg 53%
    06:00 +27°C° 0 mm 6 mps 760 mmHg 50%
    07:00 +29°C° 0 mm 7 mps 760 mmHg 47%
    08:00 +30°C° 0 mm 7 mps 760 mmHg 45%
    09:00 +33°C° 0 mm 6 mps 760 mmHg 40%
    10:00 +35°C° 0 mm 6 mps 760 mmHg 35%
    11:00 +37°C° 0 mm 5 mps 760 mmHg 31%
    12:00 +40°C° 0 mm 5 mps 759 mmHg 28%
    13:00 +41°C° 0 mm 4 mps 759 mmHg 26%
    14:00 +42°C° 0 mm 4 mps 758 mmHg 23%
    15:00 +42°C° 0 mm 4 mps 758 mmHg 24%
    16:00 +40°C° 0 mm 3 mps 757 mmHg 25%
    17:00 +40°C° 0 mm 3 mps 757 mmHg 26%
    18:00 +38°C° 0 mm 4 mps 757 mmHg 31%
    19:00 +35°C° 0 mm 4 mps 757 mmHg 37%
    20:00 +32°C° 0 mm 5 mps 757 mmHg 42%
    21:00 +32°C° 0 mm 5 mps 757 mmHg 42%
    22:00 +32°C° 0 mm 6 mps 758 mmHg 42%
    23:00 +30°C° 0 mm 6 mps 758 mmHg 41%
    Show more